Zurück zum Katalog

CZ-6A DEB

AktivPO
NORAD 60897·DEBRIS·🇨🇳 China

Gestartet Aug 6, 2024 von Taiyuan Satellite Launch Center

Loading…

Nächste Überflüge (nächste 24 Stunden)

TLE

AktuellSource: Space-Track

Epoche: Sep 14, 2026, 11:26 UTC

1 60897U 24140LC  26257.47683699  .00003674  00000-0  70073-3 0  9995
2 60897  89.0303 262.5748 0086472 312.3736  47.0178 14.61436673110168

Verfolge CZ-6A DEB in Echtzeit mit AllMySat

Download on the App Store